EW9132 Weather Reports


time (UTC)temp
C
wind
direction
speed
KPH
gust
KPH
rain 1hr
cm
rain 24hr
cm
rain mn
cm
humidity
%
barometer
mb
20190421123711 25 40 6.4 11.3 0.00 0.00 0.00 30 1016.9
20190421123213 25 44 6.4 12.9 0.00 0.00 0.00 30 1016.9
20190421122716 25 37 8.0 12.9 0.00 0.00 0.00 30 1016.9
20190421122205 25 20 9.7 12.9 0.00 0.00 0.00 29 1017.9
20190421121704 25 30 9.7 12.9 0.00 0.00 0.00 29 1017.9
20190421121204 25 42 9.7 12.9 0.00 0.00 0.00 30 1017.9
20190421120705 25 25 8.0 11.3 0.00 0.00 0.00 33 1017.9
20190421120204 24 19 8.0 11.3 0.00 0.00 0.00 32 1017.9
20190421115729 25 35 9.7 11.3 0.00 0.00 0.00 31 1017.9
20190421115205 24 49 9.7 12.9 0.00 0.00 0.00 34 1017.9
20190421114705 24 38 11.3 14.5 0.00 0.00 0.00 31 1017.9
20190421114205 24 28 11.3 14.5 0.00 0.00 0.00 31 1017.9
20190421113705 24 34 9.7 12.9 0.00 0.00 0.00 31 1018.9
20190421113205 24 37 11.3 17.7 0.00 0.00 0.00 33 1018.9
20190421112718 23 40 11.3 17.7 0.00 0.00 0.00 32 1018.9
20190421112205 23 42 12.9 17.7 0.00 0.00 0.00 32 1018.9
20190421111706 23 37 11.3 17.7 0.00 0.00 0.00 31 1018.9
20190421111205 23 36 11.3 14.5 0.00 0.00 0.00 31 1018.9
20190421110706 23 31 12.9 14.5 0.00 0.00 0.00 31 1018.9
20190421110205 23 26 11.3 14.5 0.00 0.00 0.00 33 1018.9
20190421105717 23 36 12.9 14.5 0.00 0.00 0.00 33 1018.9
20190421105205 23 35 12.9 20.9 0.00 0.00 0.00 32 1018.9
20190421104706 23 20 14.5 20.9 0.00 0.00 0.00 32 1018.9
20190421104205 23 26 12.9 20.9 0.00 0.00 0.00 32 1018.9
20190421103706 23 41 12.9 19.3 0.00 0.00 0.00 34 1018.9
20190421103206 23 41 11.3 19.3 0.00 0.00 0.00 34 1018.9
20190421102729 23 37 12.9 19.3 0.00 0.00 0.00 33 1018.9
20190421102206 22 34 12.9 17.7 0.00 0.00 0.00 34 1018.9
20190421101706 22 39 12.9 14.5 0.00 0.00 0.00 35 1018.9
20190421101205 22 35 11.3 14.5 0.00 0.00 0.00 34 1018.9
20190421100706 22 34 11.3 14.5 0.00 0.00 0.00 35 1018.9
20190421100206 22 32 11.3 14.5 0.00 0.00 0.00 37 1018.9
20190421095718 22 37 11.3 14.5 0.00 0.00 0.00 38 1018.9
20190421095206 22 32 12.9 16.1 0.00 0.00 0.00 37 1018.9
20190421094706 21 33 12.9 17.7 0.00 0.00 0.00 38 1018.9
20190421094206 21 29 11.3 17.7 0.00 0.00 0.00 38 1018.9
20190421093706 21 23 11.3 16.1 0.00 0.00 0.00 36 1019.9
20190421093206 21 28 11.3 16.1 0.00 0.00 0.00 40 1019.9
20190421092718 21 26 9.7 14.5 0.00 0.00 0.00 40 1019.9
20190421092207 21 32 8.0 12.9 0.00 0.00 0.00 40 1019.9
20190421091206 21 41 4.8 12.9 0.00 0.00 0.00 42 1019.9
20190421090707 21 25 4.8 9.7 0.00 0.00 0.00 41 1019.9
20190421090208 20 22 4.8 9.7 0.00 0.00 0.00 43 1019.9
20190421085730 20 30 6.4 9.7 0.00 0.00 0.00 42 1019.9
20190421085206 20 27 8.0 9.7 0.00 0.00 0.00 44 1020.9
20190421084707 20 15 8.0 9.7 0.00 0.00 0.00 44 1020.9
20190421084207 19 17 8.0 9.7 0.00 0.00 0.00 44 1020.9
20190421083707 19 15 6.4 9.7 0.00 0.00 0.00 44 1019.9
20190421083208 19 18 4.8 9.7 0.00 0.00 0.00 43 1019.9
20190421082730 18 46 3.2 9.7 0.00 0.00 0.00 45 1019.9
20190421082207 18 57 3.2 9.7 0.00 0.00 0.00 47 1020.9
20190421081707 18 51 3.2 9.7 0.00 0.00 0.00 47 1020.9
20190421081207 18 44 4.8 9.7 0.00 0.00 0.00 48 1020.9
20190421080707 17 47 6.4 9.7 0.00 0.00 0.00 48 1020.9
20190421080207 17 52 6.4 9.7 0.00 0.00 0.00 47 1020.9
20190421075730 17 53 6.4 9.7 0.00 0.00 0.00 48 1020.9
20190421075207 17 45 8.0 11.3 0.00 0.00 0.00 47 1020.9
20190421074707 16 41 9.7 14.5 0.00 0.00 0.00 49 1020.9
20190421074208 16 37 9.7 14.5 0.00 0.00 0.00 49 1020.9
20190421073707 16 30 9.7 12.9 0.00 0.00 0.00 49 1020.9
20190421073208 16 27 9.7 11.3 0.00 0.00 0.00 50 1020.9
20190421072729 16 34 9.7 11.3 0.00 0.00 0.00 51 1020.9
20190421071708 15 41 9.7 11.3 0.00 0.00 0.00 51 1020.9
20190421071218 15 31 9.7 11.3 0.00 0.00 0.00 51 1020.9
20190421070715 15 31 8.0 11.3 0.00 0.00 0.00 51 1020.9
20190421070208 15 24 8.0 14.5 0.00 0.00 0.00 52 1020.9
20190421065722 14 17 8.0 14.5 0.00 0.00 0.00 54 1020.9
20190421065218 14 18 6.4 14.5 0.00 0.00 0.00 55 1020.9
20190421064709 13 11 4.8 14.5 0.00 0.00 0.00 55 1020.9
20190421064219 13 9 3.2 6.4 0.00 0.00 0.00 58 1020.9
20190421063717 13 12 4.8 6.4 0.00 0.00 0.00 61 1020.9
20190421063219 13 29 3.2 4.8 0.00 0.00 0.00 61 1020.9
20190421062728 12 14 3.2 6.4 0.00 0.00 0.00 62 1020.9
20190421062208 12 12 3.2 6.4 0.00 0.00 0.00 63 1020.9
20190421061708 12 359 3.2 6.4 0.00 0.00 0.00 63 1020.9
20190421061209 11 358 4.8 6.4 0.00 0.00 0.00 63 1020.9
20190421060708 11 4 3.2 6.4 0.00 0.00 0.00 63 1019.9
20190421060209 11 4 3.2 6.4 0.00 0.00 0.00 63 1019.9
20190421055733 11 359 4.8 8.0 0.00 0.00 0.00 63 1019.9
20190421055209 11 357 4.8 8.0 0.00 0.00 0.00 63 1020.9
20190421054709 10 356 4.8 8.0 0.00 0.00 0.00 64 1020.9
20190421054208 10 353 4.8 8.0 0.00 0.00 0.00 64 1020.9
20190421053710 10 357 4.8 6.4 0.00 0.00 0.00 64 1020.9
20190421053209 10 353 4.8 8.0 0.00 0.00 0.00 64 1020.9
20190421052731 10 356 4.8 9.7 0.00 0.00 0.00 64 1020.9
20190421052209 10 9 3.2 9.7 0.00 0.00 0.00 65 1020.9
20190421051710 10 6 4.8 9.7 0.00 0.00 0.00 66 1020.9
20190421051209 9 355 6.4 9.7 0.00 0.00 0.00 66 1020.9
20190421050709 9 358 6.4 9.7 0.00 0.00 0.00 66 1020.9
20190421050210 9 4 6.4 9.7 0.00 0.00 0.00 66 1020.9
20190421045731 9 4 6.4 8.0 0.00 0.00 0.00 67 1020.9
20190421045210 9 2 6.4 9.7 0.00 0.00 0.00 67 1020.9
20190421044709 9 357 6.4 9.7 0.00 0.00 0.00 67 1020.9
20190421044209 9 5 6.4 9.7 0.00 0.00 0.00 67 1020.9
20190421043710 9 9 6.4 9.7 0.00 0.00 0.00 67 1020.9
20190421043210 9 6 6.4 9.7 0.00 0.00 0.00 68 1020.9
20190421042733 9 3 6.4 9.7 0.00 0.00 0.00 68 1020.9
20190421042210 9 8 6.4 8.0 0.00 0.00 0.00 68 1020.9
20190421041710 9 8 6.4 9.7 0.00 0.00 0.00 67 1020.9
20190421041210 9 7 6.4 9.7 0.00 0.00 0.00 67 1020.9
20190421040710 9 359 6.4 9.7 0.00 0.00 0.00 67 1020.9
20190421040211 10 4 6.4 9.7 0.00 0.00 0.00 67 1020.9
20190421035722 10 14 6.4 9.7 0.00 0.00 0.00 67 1020.9
20190421035217 10 10 4.8 8.0 0.00 0.00 0.00 66 1021.9
20190421034711 10 3 4.8 8.0 0.00 0.00 0.00 66 1021.9
20190421034210 10 4 4.8 9.7 0.00 0.00 0.00 66 1021.9
20190421033711 10 6 3.2 9.7 0.00 0.00 0.00 65 1021.9
20190421033211 10 4 3.2 6.4 0.00 0.00 0.00 65 1021.9
20190421032721 10 358 3.2 6.4 0.00 0.00 0.00 65 1021.9
20190421032215 10 355 4.8 9.7 0.00 0.00 0.00 64 1021.9
20190421031712 10 358 3.2 9.7 0.00 0.00 0.00 64 1021.9
20190421031218 10 2 3.2 6.4 0.00 0.00 0.00 65 1021.9
20190421030713 10 359 3.2 6.4 0.00 0.00 0.00 65 1021.9
20190421030219 10 354 1.6 6.4 0.00 0.00 0.00 65 1021.9
20190421025725 10 357 1.6 6.4 0.00 0.00 0.00 66 1021.9
20190421025211 10 8 1.6 6.4 0.00 0.00 0.00 66 1022.9
20190421024711 10 4 1.6 6.4 0.00 0.00 0.00 66 1022.9
20190421024211 10 358 3.2 8.0 0.00 0.00 0.00 66 1022.9
20190421023711 10 358 3.2 8.0 0.00 0.00 0.00 66 1022.9
20190421023215 10 358 4.8 9.7 0.00 0.00 0.00 67 1022.9
20190421022723 10 354 4.8 9.7 0.00 0.00 0.00 67 1022.9
20190421022211 10 355 4.8 8.0 0.00 0.00 0.00 66 1022.9
20190421021711 10 356 4.8 9.7 0.00 0.00 0.00 66 1022.9
20190421021216 10 2 4.8 9.7 0.00 0.00 0.00 66 1022.9
20190421020717 10 1 3.2 8.0 0.00 0.00 0.00 66 1022.9
20190421020211 10 348 3.2 6.4 0.00 0.00 0.00 66 1022.9
20190421015723 10 356 3.2 4.8 0.00 0.00 0.00 66 1022.9
20190421015216 10 357 3.2 6.4 0.00 0.00 0.00 65 1023.9
20190421014714 10 349 3.2 8.0 0.00 0.00 0.00 66 1023.9
20190421014222 10 351 3.2 8.0 0.00 0.00 0.00 66 1023.9
20190421013712 10 358 3.2 8.0 0.00 0.00 0.00 66 1022.9
20190421013222 10 357 3.2 6.4 0.00 0.00 0.00 66 1022.9
20190421012723 10 357 3.2 6.4 0.00 0.00 0.00 66 1022.9
20190421012212 10 358 3.2 6.4 0.00 0.00 0.00 66 1021.9
20190421011712 10 4 3.2 6.4 0.00 0.00 0.00 66 1021.9
20190421011219 10 6 1.6 6.4 0.00 0.00 0.00 65 1021.9
20190421010717 10 357 1.6 6.4 0.00 0.00 0.00 65 1022.9
20190421010223 10 355 1.6 6.4 0.00 0.00 0.00 65 1022.9
20190421005723 10 354 1.6 6.4 0.00 0.00 0.00 65 1022.9
20190421005216 10 354 3.2 6.4 0.00 0.00 0.00 65 1022.9
20190421004714 10 350 3.2 4.8 0.00 0.00 0.00 65 1022.9
20190421004219 10 349 1.6 6.4 0.00 0.00 0.00 65 1022.9
20190421003719 10 351 1.6 6.4 0.00 0.00 0.00 64 1022.9
20190421003213 11 352 1.6 6.4 0.00 0.00 0.00 64 1022.9
20190421002724 11 356 1.6 4.8 0.00 0.00 0.00 64 1022.9
20190421002212 11 9 3.2 8.0 0.00 0.00 0.00 64 1022.9
20190421001712 11 14 3.2 8.0 0.00 0.00 0.00 64 1022.9
20190421001219 11 16 3.2 6.4 0.00 0.00 0.00 64 1022.9
20190421000718 11 12 3.2 8.0 0.00 0.00 0.00 64 1023.9
20190421000213 11 6 3.2 8.0 0.00 0.00 0.00 64 1023.9
20190420235735 11 2 3.2 6.4 0.00 0.00 0.00 64 1023.9
20190420235213 11 358 3.2 6.4 0.00 0.00 0.00 64 1023.9
20190420234713 11 354 3.2 6.4 0.00 0.00 0.00 63 1023.9
20190420234219 11 355 3.2 6.4 0.00 0.00 0.00 63 1023.9
20190420233713 11 4 1.6 4.8 0.00 0.00 0.00 62 1023.9
20190420233219 11 355 0.0 4.8 0.00 0.00 0.00 61 1023.9
20190420232725 11 354 0.0 4.8 0.00 0.00 0.00 60 1023.9
20190420232213 11 354 1.6 6.4 0.00 0.00 0.00 59 1023.9
20190420231713 11 355 3.2 6.4 0.00 0.00 0.00 59 1023.9
20190420231217 11 359 1.6 6.4 0.00 0.00 0.00 59 1023.9
20190420230716 11 3 1.6 6.4 0.00 0.00 0.00 58 1023.9
20190420230222 11 2 1.6 6.4 0.00 0.00 0.00 58 1023.9
20190420225726 11 355 1.6 4.8 0.00 0.00 0.00 58 1023.9
20190420225219 11 353 1.6 4.8 0.00 0.00 0.00 57 1023.9
20190420224714 11 356 1.6 4.8 0.00 0.00 0.00 58 1023.9
20190420224222 11 351 0.0 4.8 0.00 0.00 0.00 57 1023.9
20190420223717 11 343 1.6 4.8 0.00 0.00 0.00 58 1023.9
20190420223221 11 343 1.6 4.8 0.00 0.00 0.00 57 1023.9
20190420222732 11 346 1.6 4.8 0.00 0.00 0.00 58 1023.9
20190420222225 11 347 0.0 3.2 0.00 0.00 0.00 57 1023.9
20190420221714 11 347 1.6 6.4 0.00 0.00 0.00 57 1023.9
20190420221214 11 352 1.6 6.4 0.00 0.00 0.00 57 1023.9
20190420220715 11 358 1.6 4.8 0.00 0.00 0.00 57 1024.9
20190420220214 12 357 1.6 4.8 0.00 0.00 0.00 55 1024.9
20190420215747 12 355 1.6 4.8 0.00 0.00 0.00 54 1024.9
20190420215223 12 356 1.6 6.4 0.00 0.00 0.00 54 1024.9
20190420214715 12 5 1.6 6.4 0.00 0.00 0.00 54 1024.9
20190420214223 12 15 1.6 6.4 0.00 0.00 0.00 53 1024.9
20190420213723 13 17 1.6 6.4 0.00 0.00 0.00 52 1024.9
20190420213214 13 9 0.0 4.8 0.00 0.00 0.00 52 1024.9
20190420212734 13 1 0.0 1.6 0.00 0.00 0.00 52 1024.9
20190420212226 13 6 1.6 6.4 0.00 0.00 0.00 51 1024.9
20190420211715 13 9 4.8 6.4 0.00 0.00 0.00 51 1024.9
20190420211215 13 16 4.8 6.4 0.00 0.00 0.00 51 1024.9
20190420210715 13 15 4.8 6.4 0.00 0.00 0.00 52 1024.9
20190420210215 13 5 6.4 6.4 0.00 0.00 0.00 52 1024.9
20190420205728 13 3 6.4 12.9 0.00 0.00 0.00 52 1024.9
20190420205215 13 5 6.4 12.9 0.00 0.00 0.00 52 1024.9
20190420204716 13 6 6.4 9.7 0.00 0.00 0.00 52 1024.9
20190420204215 13 9 6.4 9.7 0.00 0.00 0.00 52 1024.9
20190420203715 13 7 6.4 9.7 0.00 0.00 0.00 52 1024.9
20190420203222 13 7 6.4 9.7 0.00 0.00 0.00 52 1024.9
20190420202726 14 4 4.8 9.7 0.00 0.00 0.00 52 1024.9
20190420202219 14 3 3.2 6.4 0.00 0.00 0.00 51 1024.9
20190420201716 15 5 1.6 8.0 0.00 0.00 0.00 51 1024.9
20190420201216 15 6 1.6 8.0 0.00 0.00 0.00 49 1024.9
20190420200716 15 4 3.2 8.0 0.00 0.00 0.00 49 1024.9
20190420200221 15 356 6.4 9.7 0.00 0.00 0.00 48 1024.9
20190420195727 16 350 6.4 9.7 0.00 0.00 0.00 48 1024.9
20190420195219 16 350 6.4 9.7 0.00 0.00 0.00 48 1024.9
20190420194716 16 352 6.4 9.7 0.00 0.00 0.00 48 1024.9
20190420194216 16 359 4.8 9.7 0.00 0.00 0.00 48 1024.9
20190420193716 16 359 4.8 8.0 0.00 0.00 0.00 48 1024.9
20190420193222 16 354 4.8 8.0 0.00 0.00 0.00 48 1024.9
20190420192730 16 353 6.4 9.7 0.00 0.00 0.00 48 1024.9
20190420192216 17 351 6.4 11.3 0.00 0.00 0.00 46 1024.9
20190420191716 17 2 8.0 11.3 0.00 0.00 0.00 46 1024.9
20190420191221 17 358 8.0 11.3 0.00 0.00 0.00 46 1024.9
20190420190718 17 350 8.0 9.7 0.00 0.00 0.00 45 1024.9
20190420190217 17 357 4.8 9.7 0.00 0.00 0.00 45 1024.9
20190420185738 17 6 4.8 9.7 0.00 0.00 0.00 46 1024.9
20190420185216 17 5 6.4 9.7 0.00 0.00 0.00 45 1024.9
20190420184717 17 7 4.8 9.7 0.00 0.00 0.00 44 1024.9
20190420184221 18 11 4.8 9.7 0.00 0.00 0.00 42 1024.9
20190420183718 18 6 4.8 8.0 0.00 0.00 0.00 40 1024.9
20190420183225 18 358 4.8 9.7 0.00 0.00 0.00 39 1024.9
20190420182732 18 2 4.8 9.7 0.00 0.00 0.00 37 1024.9
20190420182217 19 4 4.8 9.7 0.00 0.00 0.00 37 1024.9
20190420181717 19 1 6.4 9.7 0.00 0.00 0.00 35 1024.9
20190420181223 20 10 6.4 9.7 0.00 0.00 0.00 33 1024.9
20190420180719 20 12 6.4 9.7 0.00 0.00 0.00 33 1024.9
20190420180217 20 2 8.0 9.7 0.00 0.00 0.00 32 1024.9
20190420175728 20 3 8.0 12.9 0.00 0.00 0.00 31 1024.9
20190420175218 21 6 8.0 12.9 0.00 0.00 0.00 30 1024.9
20190420174717 21 2 6.4 12.9 0.00 0.00 0.00 30 1024.9
20190420174227 22 357 6.4 12.9 0.00 0.00 0.00 29 1024.9
20190420173726 22 4 8.0 9.7 0.00 0.00 0.00 29 1024.9
20190420173217 22 15 8.0 12.9 0.00 0.00 0.00 29 1024.9
20190420172729 22 12 9.7 16.1 0.00 0.00 0.00 28 1024.9
20190420172218 22 359 11.3 16.1 0.00 0.00 0.00 28 1024.9
20190420171718 22 357 11.3 16.1 0.00 0.00 0.00 27 1024.9
20190420171226 23 357 12.9 17.7 0.00 0.00 0.00 27 1024.9
20190420170726 23 359 12.9 17.7 0.00 0.00 0.00 26 1024.9
20190420170218 23 1 11.3 17.7 0.00 0.00 0.00 26 1024.9
20190420165735 23 356 12.9 17.7 0.00 0.00 0.00 26 1024.9
20190420165226 23 359 14.5 17.7 0.00 0.00 0.00 26 1024.9
20190420164718 23 11 12.9 17.7 0.00 0.00 0.00 27 1024.9
20190420164218 24 18 12.9 20.9 0.00 0.00 0.00 26 1024.9
20190420163718 24 14 11.3 20.9 0.00 0.00 0.00 26 1024.9
20190420163218 24 5 12.9 20.9 0.00 0.00 0.00 25 1024.9
20190420162730 24 7 12.9 17.7 0.00 0.00 0.00 26 1024.9
20190420162218 25 12 14.5 24.1 0.00 0.00 0.00 26 1024.9
20190420161719 25 7 14.5 24.1 0.00 0.00 0.00 24 1024.9
20190420161223 25 19 12.9 19.3 0.00 0.00 0.00 24 1024.9
20190420160724 25 27 12.9 16.1 0.00 0.00 0.00 24 1024.9
20190420160219 25 29 11.3 17.7 0.00 0.00 0.00 20 1024.9
20190420155730 25 29 11.3 17.7 0.00 0.00 0.00 21 1024.9
20190420155223 26 25 11.3 14.5 0.00 0.00 0.00 22 1024.9
20190420154720 26 17 9.7 12.9 0.00 0.00 0.00 21 1024.9
20190420154226 26 18 9.7 12.9 0.00 0.00 0.00 21 1024.9
20190420153726 26 21 9.7 12.9 0.00 0.00 0.00 21 1023.9
20190420153219 26 37 8.0 12.9 0.00 0.00 0.00 22 1023.9
20190420152730 26 53 9.7 14.5 0.00 0.00 0.00 23 1023.9
20190420152219 26 43 11.3 17.7 0.00 0.00 0.00 21 1024.9
20190420151719 26 38 11.3 17.7 0.00 0.00 0.00 19 1024.9
20190420151221 26 31 11.3 14.5 0.00 0.00 0.00 20 1024.9
20190420150722 26 21 9.7 16.1 0.00 0.00 0.00 20 1024.9
20190420150219 26 36 9.7 16.1 0.00 0.00 0.00 20 1024.9
20190420145741 26 48 9.7 14.5 0.00 0.00 0.00 21 1024.9
20190420145219 26 31 11.3 14.5 0.00 0.00 0.00 21 1024.9
20190420144720 26 13 9.7 14.5 0.00 0.00 0.00 21 1024.9
20190420144222 26 13 9.7 14.5 0.00 0.00 0.00 19 1024.9
20190420143724 26 26 11.3 14.5 0.00 0.00 0.00 20 1024.9
20190420143219 26 52 11.3 14.5 0.00 0.00 0.00 21 1024.9
20190420142731 26 37 11.3 17.7 0.00 0.00 0.00 20 1024.9
20190420142220 26 8 9.7 17.7 0.00 0.00 0.00 20 1025.9
20190420141720 27 12 9.7 12.9 0.00 0.00 0.00 19 1025.9
20190420141222 26 22 11.3 16.1 0.00 0.00 0.00 18 1025.9
20190420140721 26 37 12.9 19.3 0.00 0.00 0.00 21 1025.9
20190420140220 26 36 11.3 19.3 0.00 0.00 0.00 21 1025.9
20190420135739 27 13 11.3 9.7 0.00 0.00 0.00 21 1025.9
20190420135220 26 19 11.3 12.9 0.00 0.00 0.00 20 1025.9
20190420134720 27 16 9.7 12.9 0.00 0.00 0.00 20 1025.9
20190420134225 27 12 9.7 12.9 0.00 0.00 0.00 20 1025.9
20190420133725 26 16 11.3 14.5 0.00 0.00 0.00 21 1025.9
20190420133220 26 21 11.3 14.5 0.00 0.00 0.00 21 1025.9
20190420132731 26 43 11.3 14.5 0.00 0.00 0.00 20 1025.9
20190420132220 26 36 9.7 14.5 0.00 0.00 0.00 20 1026.9
20190420131721 26 33 8.0 14.5 0.00 0.00 0.00 21 1026.9
20190420131223 26 52 8.0 12.9 0.00 0.00 0.00 25 1026.9
20190420130725 26 61 9.7 12.9 0.00 0.00 0.00 23 1026.9
20190420130221 26 59 9.7 12.9 0.00 0.00 0.00 23 1026.9
20190420125743 26 55 9.7 11.3 0.00 0.00 0.00 24 1026.9
20190420125221 26 58 9.7 14.5 0.00 0.00 0.00 23 1026.9
20190420124721 26 62 9.7 14.5 0.00 0.00 0.00 24 1026.9
20190420124227 26 59 9.7 16.1 0.00 0.00 0.00 24 1026.9